"Sample Date","Sample Time","Sample Value","Units","Flow Rate","Sample Interval","Number Channels","Micron Size 0","Counts/Channel 0","Micron Size 1","Counts/Channel 1","Micron Size 2","Counts/Channel 2","Micron Size 3","Counts/Channel 3","Micron Size 4","Counts/Channel 4","Micron Size 5","Counts/Channel 5","Micron Size 6","Counts/Channel 6","Micron Size 7","Counts/Channel 7","Micron Size 8","Counts/Channel 8","Micron Size 9","Counts/Channel 9","Micron Size 10","Counts/Channel 10","Micron Size 11","Counts/Channel 11","Micron Size 12","Counts/Channel 12","Micron Size 13","Counts/Channel 13","Micron Size 14","Counts/Channel 14","Micron Size 15","Counts/Channel 15","Micron Size 16","Counts/Channel 16","Micron Size 17","Counts/Channel 17","Micron Size 18","Counts/Channel 18","Micron Size 19","Counts/Channel 19","Micron Size 20","Counts/Channel 20","Micron Size 21","Counts/Channel 21","Micron Size 22","Counts/Channel 22","Micron Size 23","Counts/Channel 23","Micron Size 24","Counts/Channel 24","Micron Size 25","Counts/Channel 25","Micron Size 26","Counts/Channel 26","Micron Size 27","Counts/Channel 27","Micron Size 28","Counts/Channel 28","Micron Size 29","Counts/Channel 29","Micron Size 30","Counts/Channel 30","Micron Size 31","Counts/Channel 31"
"04/06/08","14:00:01",18357.000,"cc",28392.779,6.00,6,0.100,16478.000,0.200,930.000,0.300,412.000,0.500,384.000,1.000,153.000,5.000,0
"04/06/08","14:00:07",18066.000,"cc",28302.057,6.00,6,0.100,16266.000,0.200,862.000,0.300,412.000,0.500,376.000,1.000,150.000,5.000,0
"04/06/08","14:00:13",18181.000,"cc",28252.572,6.00,6,0.100,16346.000,0.200,933.000,0.300,377.000,0.500,402.000,1.000,123.000,5.000,0
"04/06/08","14:00:19",18388.000,"cc",28286.107,6.00,6,0.100,16477.000,0.200,907.000,0.300,439.000,0.500,437.000,1.000,128.000,5.000,0
"04/06/08","14:00:25",18390.000,"cc",28304.440,6.00,6,0.100,16460.000,0.200,957.000,0.300,444.000,0.500,407.000,1.000,122.000,5.000,0
"04/06/08","14:00:31",18524.000,"cc",28310.258,6.00,6,0.100,16596.000,0.200,949.000,0.300,395.000,0.500,446.000,1.000,138.000,5.000,0
"04/06/08","14:00:37",18531.000,"cc",28396.178,6.00,6,0.100,16674.000,0.200,915.000,0.300,352.000,0.500,435.000,1.000,155.000,5.000,0
"04/06/08","14:00:43",18465.000,"cc",28330.311,6.00,6,0.100,16596.000,0.200,950.000,0.300,376.000,0.500,396.000,1.000,147.000,5.000,0
"04/06/08","14:00:49",18088.000,"cc",28327.711,6.00,6,0.100,16203.000,0.200,938.000,0.300,406.000,0.500,403.000,1.000,138.000,5.000,0
"04/06/08","14:00:55",18309.000,"cc",28291.559,6.00,6,0.100,16463.000,0.200,917.000,0.300,391.000,0.500,398.000,1.000,140.000,5.000,0
"04/06/08","14:01:01",18780.000,"cc",28258.875,6.00,6,0.100,16959.000,0.200,909.000,0.300,423.000,0.500,387.000,1.000,102.000,5.000,0
"04/06/08","14:01:07",18723.000,"cc",28325.250,6.00,6,0.100,16863.000,0.200,910.000,0.300,415.000,0.500,394.000,1.000,141.000,5.000,0
"04/06/08","14:01:13",18696.000,"cc",28359.082,6.00,6,0.100,16829.000,0.200,909.000,0.300,418.000,0.500,398.000,1.000,142.000,5.000,0
"04/06/08","14:01:19",18982.000,"cc",28306.422,6.00,6,0.100,17072.000,0.200,958.000,0.300,403.000,0.500,388.000,1.000,161.000,5.000,0
"04/06/08","14:01:25",18761.000,"cc",28344.957,6.00,6,0.100,16923.000,0.200,906.000,0.300,357.000,0.500,429.000,1.000,146.000,5.000,0
"04/06/08","14:01:31",18209.000,"cc",28329.219,6.00,6,0.100,16365.000,0.200,907.000,0.300,401.000,0.500,403.000,1.000,133.000,5.000,0
"04/06/08","14:01:37",18318.000,"cc",28255.752,6.00,6,0.100,16442.000,0.200,911.000,0.300,411.000,0.500,419.000,1.000,135.000,5.000,0
"04/06/08","14:01:43",18754.000,"cc",28380.404,6.00,6,0.100,16884.000,0.200,924.000,0.300,397.000,0.500,405.000,1.000,144.000,5.000,0
"04/06/08","14:01:49",18736.000,"cc",28251.422,6.00,6,0.100,16936.000,0.200,872.000,0.300,418.000,0.500,372.000,1.000,138.000,5.000,0
"04/06/08","14:01:55",18713.000,"cc",28340.824,6.00,6,0.100,16850.000,0.200,928.000,0.300,409.000,0.500,398.000,1.000,128.000,5.000,0
"04/06/08","14:02:01",18525.000,"cc",28293.688,6.00,6,0.100,16769.000,0.200,874.000,0.300,355.000,0.500,377.000,1.000,150.000,5.000,0
"04/06/08","14:02:07",18513.000,"cc",28318.397,6.00,6,0.100,16786.000,0.200,831.000,0.300,345.000,0.500,411.000,1.000,140.000,5.000,0
"04/06/08","14:02:13",18291.000,"cc",28389.936,6.00,6,0.100,16452.000,0.200,884.000,0.300,441.000,0.500,381.000,1.000,133.000,5.000,0
"04/06/08","14:02:19",18203.000,"cc",28232.281,6.00,6,0.100,16350.000,0.200,889.000,0.300,401.000,0.500,429.000,1.000,134.000,5.000,0
"04/06/08","14:02:25",18586.000,"cc",28243.682,6.00,6,0.100,16693.000,0.200,944.000,0.300,392.000,0.500,403.000,1.000,154.000,5.000,0
"04/06/08","14:02:31",18186.000,"cc",28355.867,6.00,6,0.100,16358.000,0.200,944.000,0.300,382.000,0.500,366.000,1.000,136.000,5.000,0
"04/06/08","14:02:37",18227.000,"cc",28281.822,6.00,6,0.100,16374.000,0.200,922.000,0.300,401.000,0.500,400.000,1.000,130.000,5.000,0
"04/06/08","14:02:43",18349.000,"cc",28315.127,6.00,6,0.100,16444.000,0.200,922.000,0.300,431.000,0.500,409.000,1.000,143.000,5.000,0
"04/06/08","14:02:49",18239.000,"cc",28345.926,6.00,6,0.100,16383.000,0.200,918.000,0.300,409.000,0.500,383.000,1.000,146.000,5.000,0
"04/06/08","14:02:55",18041.000,"cc",28315.955,6.00,6,0.100,16144.000,0.200,942.000,0.300,384.000,0.500,425.000,1.000,146.000,5.000,0
"04/06/08","14:03:01",18214.000,"cc",28346.246,6.00,6,0.100,16416.000,0.200,889.000,0.300,401.000,0.500,382.000,1.000,126.000,5.000,0
"04/06/08","14:03:07",18000.000,"cc",28302.410,6.00,6,0.100,16186.000,0.200,878.000,0.300,390.000,0.500,425.000,1.000,121.000,5.000,0
"04/06/08","14:03:13",18045.000,"cc",28314.330,6.00,6,0.100,16204.000,0.200,923.000,0.300,385.000,0.500,390.000,1.000,143.000,5.000,0
"04/06/08","14:03:19",18207.000,"cc",28279.772,6.00,6,0.100,16291.000,0.200,926.000,0.300,416.000,0.500,417.000,1.000,157.000,5.000,0
"04/06/08","14:03:25",18170.000,"cc",28346.332,6.00,6,0.100,16285.000,0.200,913.000,0.300,390.000,0.500,414.000,1.000,168.000,5.000,0
"04/06/08","14:03:31",18122.000,"cc",28269.734,6.00,6,0.100,16177.000,0.200,984.000,0.300,402.000,0.500,410.000,1.000,149.000,5.000,0
"04/06/08","14:03:37",18055.000,"cc",28257.100,6.00,6,0.100,16215.000,0.200,908.000,0.300,401.000,0.500,387.000,1.000,144.000,5.000,0
"04/06/08","14:03:43",18049.000,"cc",28352.959,6.00,6,0.100,16232.000,0.200,860.000,0.300,415.000,0.500,410.000,1.000,132.000,5.000,0
"04/06/08","14:03:49",18096.000,"cc",28354.549,6.00,6,0.100,16310.000,0.200,890.000,0.300,367.000,0.500,392.000,1.000,137.000,5.000,0
"04/06/08","14:03:55",18428.000,"cc",28329.822,6.00,6,0.100,16553.000,0.200,904.000,0.300,409.000,0.500,419.000,1.000,143.000,5.000,0
"04/06/08","14:04:01",18359.000,"cc",28373.867,6.00,6,0.100,16531.000,0.200,843.000,0.300,416.000,0.500,407.000,1.000,162.000,5.000,0
"04/06/08","14:04:07",18378.000,"cc",28273.607,6.00,6,0.100,16561.000,0.200,913.000,0.300,380.000,0.500,370.000,1.000,154.000,5.000,0
"04/06/08","14:04:13",18624.000,"cc",28304.525,6.00,6,0.100,16665.000,0.200,979.000,0.300,410.000,0.500,413.000,1.000,157.000,5.000,0
"04/06/08","14:04:19",18657.000,"cc",28370.357,6.00,6,0.100,16780.000,0.200,898.000,0.300,391.000,0.500,416.000,1.000,172.000,5.000,0
"04/06/08","14:04:25",18746.000,"cc",28315.543,6.00,6,0.100,16806.000,0.200,972.000,0.300,408.000,0.500,412.000,1.000,148.000,5.000,0
"04/06/08","14:04:31",18533.000,"cc",28311.445,6.00,6,0.100,16650.000,0.200,909.000,0.300,399.000,0.500,414.000,1.000,161.000,5.000,0
"04/06/08","14:04:37",18559.000,"cc",28349.379,6.00,6,0.100,16627.000,0.200,948.000,0.300,416.000,0.500,418.000,1.000,150.000,5.000,0
"04/06/08","14:04:43",18774.000,"cc",28270.945,6.00,6,0.100,16855.000,0.200,915.000,0.300,397.000,0.500,439.000,1.000,168.000,5.000,0
"04/06/08","14:04:49",18807.000,"cc",28302.731,6.00,6,0.100,16982.000,0.200,863.000,0.300,392.000,0.500,420.000,1.000,150.000,5.000,0
"04/06/08","14:04:55",18488.000,"cc",28304.881,6.00,6,0.100,16632.000,0.200,901.000,0.300,423.000,0.500,384.000,1.000,148.000,5.000,0
"04/06/08","14:05:01",18301.000,"cc",28257.391,6.00,6,0.100,16460.000,0.200,878.000,0.300,414.000,0.500,400.000,1.000,149.000,5.000,0
"04/06/08","14:05:07",18513.000,"cc",28289.248,6.00,6,0.100,16633.000,0.200,910.000,0.300,389.000,0.500,431.000,1.000,150.000,5.000,0
"04/06/08","14:05:13",18604.000,"cc",28363.106,6.00,6,0.100,16798.000,0.200,849.000,0.300,414.000,0.500,391.000,1.000,152.000,5.000,0
"04/06/08","14:05:19",18654.000,"cc",28343.008,6.00,6,0.100,16799.000,0.200,907.000,0.300,394.000,0.500,404.000,1.000,150.000,5.000,0
"04/06/08","14:05:25",18582.000,"cc",28307.830,6.00,6,0.100,16720.000,0.200,907.000,0.300,384.000,0.500,405.000,1.000,166.000,5.000,0
"04/06/08","14:05:31",18571.000,"cc",28299.135,6.00,6,0.100,16729.000,0.200,869.000,0.300,387.000,0.500,433.000,1.000,153.000,5.000,0
"04/06/08","14:05:37",18742.000,"cc",28298.904,6.00,6,0.100,16875.000,0.200,916.000,0.300,383.000,0.500,414.000,1.000,154.000,5.000,0
"04/06/08","14:05:43",18471.000,"cc",28254.203,6.00,6,0.100,16603.000,0.200,931.000,0.300,394.000,0.500,411.000,1.000,132.000,5.000,0
"04/06/08","14:05:49",18222.000,"cc",28307.770,6.00,6,0.100,16357.000,0.200,888.000,0.300,429.000,0.500,410.000,1.000,138.000,5.000,0
"04/06/08","14:05:55",18403.000,"cc",28397.631,6.00,6,0.100,16586.000,0.200,883.000,0.300,406.000,0.500,382.000,1.000,146.000,5.000,0
"04/06/08","14:06:01",18087.000,"cc",28294.402,6.00,6,0.100,16259.000,0.200,871.000,0.300,402.000,0.500,403.000,1.000,152.000,5.000,0
"04/06/08","14:06:07",18120.000,"cc",28290.867,6.00,6,0.100,16257.000,0.200,951.000,0.300,381.000,0.500,374.000,1.000,157.000,5.000,0
"04/06/08","14:06:13",17908.000,"cc",28301.229,6.00,6,0.100,16085.000,0.200,867.000,0.300,395.000,0.500,413.000,1.000,148.000,5.000,0
"04/06/08","14:06:19",18358.000,"cc",28328.074,6.00,6,0.100,16417.000,0.200,942.000,0.300,381.000,0.500,453.000,1.000,165.000,5.000,0
"04/06/08","14:06:25",18109.000,"cc",28347.029,6.00,6,0.100,16254.000,0.200,883.000,0.300,392.000,0.500,444.000,1.000,136.000,5.000,0
"04/06/08","14:06:31",18192.000,"cc",28312.148,6.00,6,0.100,16303.000,0.200,932.000,0.300,418.000,0.500,406.000,1.000,133.000,5.000,0
"04/06/08","14:06:37",18166.000,"cc",28323.203,6.00,6,0.100,16233.000,0.200,950.000,0.300,406.000,0.500,412.000,1.000,165.000,5.000,0
"04/06/08","14:06:43",17915.000,"cc",28289.727,6.00,6,0.100,16106.000,0.200,866.000,0.300,408.000,0.500,397.000,1.000,138.000,5.000,0
"04/06/08","14:06:49",18082.000,"cc",28310.582,6.00,6,0.100,16299.000,0.200,861.000,0.300,371.000,0.500,418.000,1.000,133.000,5.000,0
"04/06/08","14:06:55",18090.000,"cc",28315.623,6.00,6,0.100,16255.000,0.200,860.000,0.300,443.000,0.500,388.000,1.000,144.000,5.000,0
"04/06/08","14:07:01",18116.000,"cc",28322.734,6.00,6,0.100,16233.000,0.200,958.000,0.300,396.000,0.500,401.000,1.000,128.000,5.000,0
"04/06/08","14:07:07",18274.000,"cc",28307.086,6.00,6,0.100,16381.000,0.200,958.000,0.300,382.000,0.500,404.000,1.000,149.000,5.000,0
"04/06/08","14:07:13",18376.000,"cc",28346.766,6.00,6,0.100,16503.000,0.200,886.000,0.300,421.000,0.500,412.000,1.000,154.000,5.000,0
"04/06/08","14:07:19",18375.000,"cc",28382.969,6.00,6,0.100,16462.000,0.200,929.000,0.300,396.000,0.500,456.000,1.000,132.000,5.000,0
"04/06/08","14:07:25",18398.000,"cc",28310.543,6.00,6,0.100,16520.000,0.200,933.000,0.300,384.000,0.500,422.000,1.000,139.000,5.000,0
"04/06/08","14:07:31",18377.000,"cc",28342.516,6.00,6,0.100,16564.000,0.200,867.000,0.300,406.000,0.500,396.000,1.000,144.000,5.000,0
"04/06/08","14:07:37",17976.000,"cc",28296.813,6.00,6,0.100,16234.000,0.200,848.000,0.300,383.000,0.500,371.000,1.000,139.000,5.000,1.000
"04/06/08","14:07:43",18173.000,"cc",28290.359,6.00,6,0.100,16288.000,0.200,885.000,0.300,432.000,0.500,414.000,1.000,154.000,5.000,0
"04/06/08","14:07:49",18434.000,"cc",28304.754,6.00,6,0.100,16513.000,0.200,885.000,0.300,429.000,0.500,449.000,1.000,158.000,5.000,0
"04/06/08","14:07:55",18257.000,"cc",28314.627,6.00,6,0.100,16384.000,0.200,938.000,0.300,420.000,0.500,374.000,1.000,141.000,5.000,0
"04/06/08","14:08:01",18182.000,"cc",28292.225,6.00,6,0.100,16338.000,0.200,915.000,0.300,400.000,0.500,404.000,1.000,125.000,5.000,0
"04/06/08","14:08:07",18230.000,"cc",28395.746,6.00,6,0.100,16360.000,0.200,891.000,0.300,427.000,0.500,424.000,1.000,128.000,5.000,0
"04/06/08","14:08:13",18158.000,"cc",28303.287,6.00,6,0.100,16290.000,0.200,902.000,0.300,417.000,0.500,412.000,1.000,137.000,5.000,0
"04/06/08","14:08:19",18144.000,"cc",28245.272,6.00,6,0.100,16295.000,0.200,905.000,0.300,358.000,0.500,434.000,1.000,152.000,5.000,0
"04/06/08","14:08:25",18201.000,"cc",28354.311,6.00,6,0.100,16257.000,0.200,933.000,0.300,422.000,0.500,440.000,1.000,149.000,5.000,0
"04/06/08","14:08:31",18168.000,"cc",28304.561,6.00,6,0.100,16289.000,0.200,908.000,0.300,392.000,0.500,426.000,1.000,153.000,5.000,0
"04/06/08","14:08:37",17770.000,"cc",28347.965,6.00,6,0.100,15899.000,0.200,913.000,0.300,396.000,0.500,426.000,1.000,136.000,5.000,0
"04/06/08","14:08:43",18181.000,"cc",28353.805,6.00,6,0.100,16341.000,0.200,901.000,0.300,401.000,0.500,395.000,1.000,143.000,5.000,0
"04/06/08","14:08:49",17901.000,"cc",28333.397,6.00,6,0.100,16124.000,0.200,808.000,0.300,402.000,0.500,419.000,1.000,148.000,5.000,0
"04/06/08","14:08:55",18004.000,"cc",28265.865,6.00,6,0.100,16155.000,0.200,907.000,0.300,388.000,0.500,421.000,1.000,133.000,5.000,0
"04/06/08","14:09:01",17853.000,"cc",28180.147,6.00,6,0.100,16021.000,0.200,871.000,0.300,414.000,0.500,389.000,1.000,158.000,5.000,0
"04/06/08","14:09:07",18093.000,"cc",28341.977,6.00,6,0.100,16225.000,0.200,865.000,0.300,431.000,0.500,430.000,1.000,142.000,5.000,0
"04/06/08","14:09:13",18013.000,"cc",28286.463,6.00,6,0.100,16170.000,0.200,872.000,0.300,403.000,0.500,425.000,1.000,143.000,5.000,0
"04/06/08","14:09:19",17978.000,"cc",28335.856,6.00,6,0.100,16104.000,0.200,883.000,0.300,408.000,0.500,430.000,1.000,153.000,5.000,0
"04/06/08","14:09:25",17916.000,"cc",28336.510,6.00,6,0.100,16101.000,0.200,851.000,0.300,391.000,0.500,413.000,1.000,160.000,5.000,0
"04/06/08","14:09:31",18024.000,"cc",28380.166,6.00,6,0.100,16159.000,0.200,864.000,0.300,401.000,0.500,431.000,1.000,169.000,5.000,0
"04/06/08","14:09:37",17974.000,"cc",28295.555,6.00,6,0.100,16046.000,0.200,890.000,0.300,436.000,0.500,435.000,1.000,167.000,5.000,0
"04/06/08","14:09:43",17822.000,"cc",28278.686,6.00,6,0.100,16021.000,0.200,863.000,0.300,412.000,0.500,393.000,1.000,133.000,5.000,0
"04/06/08","14:09:49",17949.000,"cc",28364.639,6.00,6,0.100,16095.000,0.200,894.000,0.300,413.000,0.500,403.000,1.000,144.000,5.000,0
"04/06/08","14:09:55",17968.000,"cc",28340.047,6.00,6,0.100,16114.000,0.200,863.000,0.300,400.000,0.500,430.000,1.000,161.000,5.000,0
"04/06/08","14:10:01",17935.000,"cc",28273.484,6.00,6,0.100,16041.000,0.200,916.000,0.300,403.000,0.500,412.000,1.000,163.000,5.000,0
"04/06/08","14:10:07",17867.000,"cc",28346.102,6.00,6,0.100,16032.000,0.200,905.000,0.300,380.000,0.500,402.000,1.000,148.000,5.000,0
"04/06/08","14:10:13",18034.000,"cc",28357.793,6.00,6,0.100,16208.000,0.200,879.000,0.300,409.000,0.500,393.000,1.000,145.000,5.000,0
"04/06/08","14:10:19",18243.000,"cc",28340.916,6.00,6,0.100,16406.000,0.200,861.000,0.300,407.000,0.500,410.000,1.000,159.000,5.000,0
"04/06/08","14:10:25",18125.000,"cc",28275.600,6.00,6,0.100,16291.000,0.200,863.000,0.300,406.000,0.500,397.000,1.000,168.000,5.000,0
"04/06/08","14:10:31",18068.000,"cc",28276.500,6.00,6,0.100,16195.000,0.200,844.000,0.300,423.000,0.500,425.000,1.000,181.000,5.000,0
"04/06/08","14:10:37",18206.000,"cc",28316.166,6.00,6,0.100,16385.000,0.200,861.000,0.300,423.000,0.500,389.000,1.000,148.000,5.000,0
"04/06/08","14:10:43",17923.000,"cc",28331.949,6.00,6,0.100,16114.000,0.200,902.000,0.300,388.000,0.500,379.000,1.000,140.000,5.000,0
"04/06/08","14:10:49",17990.000,"cc",28381.475,6.00,6,0.100,16158.000,0.200,875.000,0.300,377.000,0.500,415.000,1.000,165.000,5.000,0
"04/06/08","14:10:55",18250.000,"cc",28248.443,6.00,6,0.100,16362.000,0.200,862.000,0.300,423.000,0.500,435.000,1.000,168.000,5.000,0
"04/06/08","14:11:01",17806.000,"cc",28314.066,6.00,6,0.100,15961.000,0.200,878.000,0.300,388.000,0.500,439.000,1.000,140.000,5.000,0
"04/06/08","14:11:07",18173.000,"cc",28319.852,6.00,6,0.100,16380.000,0.200,793.000,0.300,442.000,0.500,406.000,1.000,152.000,5.000,0
"04/06/08","14:11:13",18280.000,"cc",28340.723,6.00,6,0.100,16375.000,0.200,864.000,0.300,428.000,0.500,442.000,1.000,171.000,5.000,0
"04/06/08","14:11:19",18383.000,"cc",28298.916,6.00,6,0.100,16501.000,0.200,880.000,0.300,399.000,0.500,446.000,1.000,157.000,5.000,0
"04/06/08","14:11:25",18209.000,"cc",28335.027,6.00,6,0.100,16371.000,0.200,870.000,0.300,384.000,0.500,407.000,1.000,177.000,5.000,0
"04/06/08","14:11:31",18069.000,"cc",28298.113,6.00,6,0.100,16272.000,0.200,843.000,0.300,390.000,0.500,414.000,1.000,150.000,5.000,0
"04/06/08","14:11:37",18210.000,"cc",28311.318,6.00,6,0.100,16294.000,0.200,907.000,0.300,413.000,0.500,434.000,1.000,162.000,5.000,0
"04/06/08","14:11:43",18317.000,"cc",28354.658,6.00,6,0.100,16513.000,0.200,842.000,0.300,416.000,0.500,405.000,1.000,141.000,5.000,0
"04/06/08","14:11:49",18289.000,"cc",28338.326,6.00,6,0.100,16440.000,0.200,862.000,0.300,394.000,0.500,440.000,1.000,153.000,5.000,0
"04/06/08","14:11:55",18591.000,"cc",28337.070,6.00,6,0.100,16750.000,0.200,844.000,0.300,437.000,0.500,423.000,1.000,137.000,5.000,0
"04/06/08","14:12:01",18108.000,"cc",28305.195,6.00,6,0.100,16237.000,0.200,858.000,0.300,434.000,0.500,423.000,1.000,156.000,5.000,0
"04/06/08","14:12:07",17974.000,"cc",28322.295,6.00,6,0.100,16172.000,0.200,846.000,0.300,398.000,0.500,400.000,1.000,158.000,5.000,0
"04/06/08","14:12:13",18267.000,"cc",28252.875,6.00,6,0.100,16497.000,0.200,855.000,0.300,400.000,0.500,378.000,1.000,137.000,5.000,0
"04/06/08","14:12:19",18143.000,"cc",28335.723,6.00,6,0.100,16291.000,0.200,856.000,0.300,395.000,0.500,431.000,1.000,170.000,5.000,0
"04/06/08","14:12:25",18102.000,"cc",28267.598,6.00,6,0.100,16292.000,0.200,875.000,0.300,403.000,0.500,405.000,1.000,127.000,5.000,0
"04/06/08","14:12:31",18114.000,"cc",28404.398,6.00,6,0.100,16279.000,0.200,840.000,0.300,408.000,0.500,426.000,1.000,161.000,5.000,0
"04/06/08","14:12:37",18045.000,"cc",28284.879,6.00,6,0.100,16174.000,0.200,854.000,0.300,428.000,0.500,436.000,1.000,153.000,5.000,0
"04/06/08","14:12:43",17937.000,"cc",28345.596,6.00,6,0.100,16063.000,0.200,841.000,0.300,460.000,0.500,433.000,1.000,140.000,5.000,0
"04/06/08","14:12:49",17666.000,"cc",28312.645,6.00,6,0.100,15858.000,0.200,872.000,0.300,391.000,0.500,399.000,1.000,146.000,5.000,0
"04/06/08","14:12:55",17808.000,"cc",28297.533,6.00,6,0.100,16116.000,0.200,739.000,0.300,382.000,0.500,408.000,1.000,163.000,5.000,0
"04/06/08","14:13:01",18020.000,"cc",28326.033,6.00,6,0.100,16142.000,0.200,845.000,0.300,422.000,0.500,428.000,1.000,183.000,5.000,0
"04/06/08","14:13:07",17885.000,"cc",28272.338,6.00,6,0.100,16047.000,0.200,866.000,0.300,394.000,0.500,421.000,1.000,157.000,5.000,0
"04/06/08","14:13:13",17800.000,"cc",28314.031,6.00,6,0.100,15966.000,0.200,824.000,0.300,420.000,0.500,445.000,1.000,145.000,5.000,0
"04/06/08","14:13:19",18122.000,"cc",28296.332,6.00,6,0.100,16307.000,0.200,779.000,0.300,414.000,0.500,453.000,1.000,169.000,5.000,0
"04/06/08","14:13:25",18039.000,"cc",28332.383,6.00,6,0.100,16132.000,0.200,932.000,0.300,385.000,0.500,422.000,1.000,168.000,5.000,0
"04/06/08","14:13:31",18116.000,"cc",28282.881,6.00,6,0.100,16282.000,0.200,839.000,0.300,386.000,0.500,430.000,1.000,179.000,5.000,0
"04/06/08","14:13:37",17633.000,"cc",28299.824,6.00,6,0.100,15894.000,0.200,832.000,0.300,383.000,0.500,391.000,1.000,133.000,5.000,0
"04/06/08","14:13:43",17767.000,"cc",28280.248,6.00,6,0.100,15944.000,0.200,901.000,0.300,400.000,0.500,380.000,1.000,142.000,5.000,0
"04/06/08","14:13:49",17885.000,"cc",28282.690,6.00,6,0.100,16021.000,0.200,879.000,0.300,402.000,0.500,435.000,1.000,148.000,5.000,0
"04/06/08","14:13:55",18123.000,"cc",28350.639,6.00,6,0.100,16232.000,0.200,868.000,0.300,437.000,0.500,417.000,1.000,169.000,5.000,0
"04/06/08","14:14:01",17622.000,"cc",28277.977,6.00,6,0.100,15832.000,0.200,879.000,0.300,402.000,0.500,383.000,1.000,126.000,5.000,0
"04/06/08","14:14:07",17885.000,"cc",28371.092,6.00,6,0.100,16124.000,0.200,825.000,0.300,409.000,0.500,387.000,1.000,140.000,5.000,0
"04/06/08","14:14:13",17813.000,"cc",28335.018,6.00,6,0.100,15981.000,0.200,836.000,0.300,410.000,0.500,426.000,1.000,160.000,5.000,0
"04/06/08","14:14:19",17992.000,"cc",28254.539,6.00,6,0.100,16134.000,0.200,884.000,0.300,409.000,0.500,418.000,1.000,147.000,5.000,0
"04/06/08","14:14:25",17964.000,"cc",28376.932,6.00,6,0.100,16039.000,0.200,910.000,0.300,401.000,0.500,440.000,1.000,174.000,5.000,0
"04/06/08","14:14:31",17722.000,"cc",28332.822,6.00,6,0.100,15866.000,0.200,846.000,0.300,415.000,0.500,431.000,1.000,164.000,5.000,0
"04/06/08","14:14:37",17758.000,"cc",28302.670,6.00,6,0.100,15851.000,0.200,876.000,0.300,449.000,0.500,422.000,1.000,160.000,5.000,0
"04/06/08","14:14:43",17676.000,"cc",28356.729,6.00,6,0.100,15874.000,0.200,824.000,0.300,410.000,0.500,412.000,1.000,156.000,5.000,0
"04/06/08","14:14:49",17470.000,"cc",28297.729,6.00,6,0.100,15717.000,0.200,796.000,0.300,374.000,0.500,422.000,1.000,161.000,5.000,0
"04/06/08","14:14:55",17747.000,"cc",28374.002,6.00,6,0.100,15938.000,0.200,774.000,0.300,416.000,0.500,426.000,1.000,193.000,5.000,0
"04/06/08","14:15:01",17450.000,"cc",28294.217,6.00,6,0.100,15557.000,0.200,864.000,0.300,440.000,0.500,439.000,1.000,150.000,5.000,0
"04/06/08","14:15:07",17526.000,"cc",28338.102,6.00,6,0.100,15661.000,0.200,872.000,0.300,427.000,0.500,424.000,1.000,142.000,5.000,0
"04/06/08","14:15:13",17719.000,"cc",28256.332,6.00,6,0.100,15855.000,0.200,840.000,0.300,437.000,0.500,437.000,1.000,150.000,5.000,0
"04/06/08","14:15:19",17500.000,"cc",28324.359,6.00,6,0.100,15710.000,0.200,794.000,0.300,420.000,0.500,423.000,1.000,153.000,5.000,0
"04/06/08","14:15:25",17523.000,"cc",28351.940,6.00,6,0.100,15645.000,0.200,871.000,0.300,408.000,0.500,449.000,1.000,150.000,5.000,0
"04/06/08","14:15:31",17285.000,"cc",28295.190,6.00,6,0.100,15473.000,0.200,803.000,0.300,414.000,0.500,437.000,1.000,158.000,5.000,0
"04/06/08","14:15:37",17430.000,"cc",28318.490,6.00,6,0.100,15650.000,0.200,836.000,0.300,402.000,0.500,390.000,1.000,152.000,5.000,0
"04/06/08","14:15:43",17579.000,"cc",28268.910,6.00,6,0.100,15783.000,0.200,828.000,0.300,411.000,0.500,402.000,1.000,155.000,5.000,0
"04/06/08","14:15:49",17747.000,"cc",28285.068,6.00,6,0.100,15938.000,0.200,833.000,0.300,396.000,0.500,436.000,1.000,144.000,5.000,0
"04/06/08","14:15:55",17810.000,"cc",28335.904,6.00,6,0.100,15994.000,0.200,841.000,0.300,406.000,0.500,425.000,1.000,144.000,5.000,0
"04/06/08","14:16:01",17574.000,"cc",28352.713,6.00,6,0.100,15776.000,0.200,810.000,0.300,403.000,0.500,443.000,1.000,142.000,5.000,0
"04/06/08","14:16:07",17194.000,"cc",28277.719,6.00,6,0.100,15446.000,0.200,780.000,0.300,376.000,0.500,421.000,1.000,171.000,5.000,0
"04/06/08","14:16:13",17618.000,"cc",28313.318,6.00,6,0.100,15715.000,0.200,906.000,0.300,433.000,0.500,401.000,1.000,163.000,5.000,0
"04/06/08","14:16:19",17122.000,"cc",28295.254,6.00,6,0.100,15334.000,0.200,818.000,0.300,418.000,0.500,399.000,1.000,153.000,5.000,0
"04/06/08","14:16:25",17351.000,"cc",28343.895,6.00,6,0.100,15577.000,0.200,831.000,0.300,373.000,0.500,419.000,1.000,151.000,5.000,0
"04/06/08","14:16:31",17640.000,"cc",28300.994,6.00,6,0.100,15774.000,0.200,856.000,0.300,409.000,0.500,393.000,1.000,208.000,5.000,0
"04/06/08","14:16:37",17403.000,"cc",28361.201,6.00,6,0.100,15611.000,0.200,854.000,0.300,369.000,0.500,408.000,1.000,161.000,5.000,0
"04/06/08","14:16:43",17432.000,"cc",28325.201,6.00,6,0.100,15627.000,0.200,857.000,0.300,401.000,0.500,413.000,1.000,134.000,5.000,0